,,,PA_Meas_PMT16A,,PR_Meas_QMR101_102,,RH_Meas_QMH101,,SR_Meas_QMS101,,TA_Meas_QMH101,,GenWind,,GenWind,
date,time,status,PA,status,PR,status,RH,status,SR,status,TA,status,DirAvg,status,SpdAvg,
2009-01-25, 00:00:05,VALID,1000.28,VALID,0,VALID,95.3703,VALID,0,VALID,23.9177,VALID,355,VALID,0,
2009-01-25, 00:01:05,VALID,1000.28,VALID,0,VALID,95.3855,VALID,0,VALID,23.939,VALID,355,VALID,0,
2009-01-25, 00:02:05,VALID,1000.23,VALID,0,VALID,95.4008,VALID,0,VALID,23.939,VALID,355,VALID,0,
2009-01-25, 00:03:05,VALID,1000.21,VALID,0,VALID,95.3779,VALID,0,VALID,23.9195,VALID,355,VALID,0,
2009-01-25, 00:04:05,VALID,1000.19,VALID,0,VALID,95.3703,VALID,0,VALID,23.8591,VALID,355,VALID,0,
2009-01-25, 00:05:05,VALID,1000.12,VALID,0,VALID,95.3397,VALID,0,VALID,23.8396,VALID,355,VALID,0,
2009-01-25, 00:06:05,VALID,1000.09,VALID,0,VALID,95.3168,VALID,0.112286,VALID,23.8201,VALID,355,VALID,0,
2009-01-25, 00:07:05,VALID,1000.12,VALID,0,VALID,95.4084,VALID,0,VALID,23.8201,VALID,355,VALID,0,
2009-01-25, 00:08:05,VALID,1000.06,VALID,0,VALID,95.4694,VALID,0.112286,VALID,23.8786,VALID,355,VALID,0,
2009-01-25, 00:09:05,VALID,1000.06,VALID,0,VALID,95.4618,VALID,0,VALID,23.8591,VALID,355,VALID,0,
2009-01-25, 00:10:05,VALID,1000.08,VALID,0,VALID,95.4847,VALID,0,VALID,23.8378,VALID,355,VALID,0,
2009-01-25, 00:11:05,VALID,1000.03,VALID,0,VALID,95.4847,VALID,0,VALID,23.8591,VALID,355,VALID,0,
2009-01-25, 00:12:05,VALID,1000,VALID,0,VALID,95.416,VALID,0.112286,VALID,23.8006,VALID,355,VALID,0.55,
2009-01-25, 00:13:05,VALID,999.973,VALID,0,VALID,95.355,VALID,0.112286,VALID,23.7616,VALID,355,VALID,0.740234,
2009-01-25, 00:14:05,VALID,999.949,VALID,0,VALID,95.3321,VALID,0,VALID,23.703,VALID,355,VALID,0.749609,
2009-01-25, 00:15:05,VALID,999.879,VALID,0,VALID,95.4237,VALID,0,VALID,23.6445,VALID,355,VALID,0.696094,
2009-01-25, 00:16:05,VALID,999.892,VALID,0,VALID,95.5152,VALID,0,VALID,23.6622,VALID,355,VALID,0.560547,
2009-01-25, 00:17:05,VALID,999.841,VALID,0,VALID,95.4008,VALID,0,VALID,23.625,VALID,355,VALID,0.372656,
2009-01-25, 00:18:05,VALID,999.817,VALID,0,VALID,95.3931,VALID,0.112286,VALID,23.5664,VALID,355,VALID,0.267578,
2009-01-25, 00:19:05,VALID,999.807,VALID,0,VALID,95.355,VALID,0.112286,VALID,23.4866,VALID,355,VALID,0.301172,
2009-01-25, 00:20:05,VALID,999.806,VALID,0,VALID,95.5381,VALID,0,VALID,23.4884,VALID,355,VALID,0.333594,
2009-01-25, 00:21:05,VALID,999.814,VALID,0,VALID,95.6144,VALID,0,VALID,23.5292,VALID,355,VALID,0.342187,
2009-01-25, 00:22:05,VALID,999.79,VALID,0,VALID,95.6144,VALID,0,VALID,23.5274,VALID,355,VALID,0.377344,
2009-01-25, 00:23:05,VALID,999.734,VALID,0,VALID,95.5228,VALID,0,VALID,23.4688,VALID,355,VALID,0.422266,
2009-01-25, 00:24:05,VALID,999.768,VALID,0,VALID,95.7288,VALID,0,VALID,23.5097,VALID,355,VALID,0.311719,
2009-01-25, 00:25:05,VALID,999.738,VALID,0,VALID,95.6678,VALID,0,VALID,23.4884,VALID,355,VALID,0.501562,
2009-01-25, 00:26:05,VALID,999.691,VALID,0,VALID,95.7822,VALID,0,VALID,23.5274,VALID,355,VALID,0.687109,
2009-01-25, 00:27:05,VALID,999.663,VALID,0,VALID,95.8891,VALID,0,VALID,23.6267,VALID,42,VALID,0.840625,
2009-01-25, 00:28:05,VALID,999.64,VALID,0,VALID,95.5991,VALID,0,VALID,23.5682,VALID,50,VALID,0.99375,
2009-01-25, 00:29:05,VALID,999.614,VALID,0,VALID,95.5686,VALID,0,VALID,23.5079,VALID,50,VALID,0.905078,
2009-01-25, 00:30:05,VALID,999.607,VALID,0,VALID,95.5381,VALID,0,VALID,23.4511,VALID,50,VALID,0.899219,
2009-01-25, 00:31:05,VALID,999.621,VALID,0,VALID,95.5305,VALID,0,VALID,23.4316,VALID,46,VALID,0.808984,
2009-01-25, 00:32:05,VALID,999.663,VALID,0,VALID,95.5305,VALID,0,VALID,23.3926,VALID,46,VALID,0.718359,
2009-01-25, 00:33:05,VALID,999.669,VALID,0,VALID,95.6449,VALID,0,VALID,23.3713,VALID,46,VALID,0.673047,
2009-01-25, 00:34:05,VALID,999.697,VALID,0,VALID,95.6373,VALID,0,VALID,23.3926,VALID,46,VALID,0.477344,
2009-01-25, 00:35:05,VALID,999.684,VALID,0,VALID,95.6144,VALID,0,VALID,23.3713,VALID,46,VALID,0.362109,
2009-01-25, 00:36:05,VALID,999.675,VALID,0,VALID,95.6373,VALID,0,VALID,23.3518,VALID,46,VALID,0.347656,
2009-01-25, 00:37:05,VALID,999.688,VALID,0,VALID,95.6907,VALID,0,VALID,23.3713,VALID,46,VALID,0.360938,
2009-01-25, 00:38:05,VALID,999.666,VALID,0,VALID,95.6678,VALID,0,VALID,23.3713,VALID,46,VALID,0.325391,
2009-01-25, 00:39:05,VALID,999.613,VALID,0,VALID,95.6907,VALID,0,VALID,23.3713,VALID,46,VALID,0.413672,
2009-01-25, 00:40:05,VALID,999.584,VALID,0,VALID,95.8662,VALID,0,VALID,23.4103,VALID,46,VALID,0.53125,
2009-01-25, 00:41:05,VALID,999.583,VALID,0,VALID,95.8814,VALID,0,VALID,23.4493,VALID,46,VALID,0.627344,
2009-01-25, 00:42:05,VALID,999.547,VALID,0,VALID,95.8357,VALID,0,VALID,23.4884,VALID,47,VALID,0.795703,
2009-01-25, 00:43:05,VALID,999.556,VALID,0,VALID,95.9272,VALID,0,VALID,23.5469,VALID,48,VALID,0.790625,
2009-01-25, 00:44:05,VALID,999.511,VALID,0,VALID,95.8814,VALID,0.112286,VALID,23.5664,VALID,50,VALID,0.794922,
2009-01-25, 00:45:05,VALID,999.521,VALID,0,VALID,95.8051,VALID,0.112286,VALID,23.5469,VALID,51,VALID,0.692578,
2009-01-25, 00:46:04,VALID,999.52,VALID,0,VALID,95.6678,VALID,0.112286,VALID,23.5079,VALID,51,VALID,0.535937,
2009-01-25, 00:47:04,VALID,999.493,VALID,0,VALID,95.5076,VALID,0,VALID,23.4298,VALID,51,VALID,0.288281,
2009-01-25, 00:48:04,VALID,999.524,VALID,0,VALID,95.5,VALID,0,VALID,23.3518,VALID,51,VALID,0.239063,
2009-01-25, 00:49:04,VALID,999.477,VALID,0,VALID,95.5381,VALID,0,VALID,23.2932,VALID,51,VALID,0,
2009-01-25, 00:50:04,VALID,999.485,VALID,0,VALID,95.5762,VALID,0,VALID,23.2737,VALID,51,VALID,0,
2009-01-25, 00:51:04,VALID,999.457,VALID,0,VALID,95.5991,VALID,0,VALID,23.2542,VALID,51,VALID,0,
2009-01-25, 00:52:04,VALID,999.435,VALID,0,VALID,95.6144,VALID,0,VALID,23.2542,VALID,51,VALID,0,
2009-01-25, 00:53:04,VALID,999.383,VALID,0,VALID,95.6602,VALID,0,VALID,23.2542,VALID,51,VALID,0,
2009-01-25, 00:54:04,VALID,999.398,VALID,0,VALID,95.6449,VALID,0,VALID,23.2347,VALID,51,VALID,0,
2009-01-25, 00:55:04,VALID,999.389,VALID,0,VALID,95.6297,VALID,0,VALID,23.2152,VALID,51,VALID,0,
2009-01-25, 00:56:04,VALID,999.376,VALID,0,VALID,95.6068,VALID,0,VALID,23.1957,VALID,51,VALID,0,
2009-01-25, 00:57:04,VALID,999.385,VALID,0,VALID,95.6602,VALID,0,VALID,23.1762,VALID,51,VALID,0,
2009-01-25, 00:58:04,VALID,999.368,VALID,0,VALID,95.767,VALID,0,VALID,23.2152,VALID,51,VALID,0,
2009-01-25, 00:59:04,VALID,999.363,VALID,0,VALID,95.828,VALID,0,VALID,23.295,VALID,51,VALID,0,
2009-01-25, 01:00:04,VALID,999.322,VALID,0,VALID,95.8738,VALID,0,VALID,23.2932,VALID,51,VALID,0,
2009-01-25, 01:01:04,VALID,999.281,VALID,0,VALID,95.8585,VALID,0,VALID,23.3323,VALID,51,VALID,0,
2009-01-25, 01:02:04,VALID,999.292,VALID,0,VALID,95.9272,VALID,0,VALID,23.3908,VALID,51,VALID,0,
2009-01-25, 01:03:04,VALID,999.26,VALID,0,VALID,95.9196,VALID,0,VALID,23.4103,VALID,51,VALID,0,
2009-01-25, 01:04:04,VALID,999.253,VALID,0,VALID,95.9501,VALID,0,VALID,23.4688,VALID,51,VALID,0.232031,
2009-01-25, 01:05:04,VALID,999.248,VALID,0,VALID,95.9577,VALID,0,VALID,23.5097,VALID,51,VALID,0.339063,
2009-01-25, 01:06:04,VALID,999.225,VALID,0,VALID,95.9196,VALID,0,VALID,23.5292,VALID,51,VALID,0.317187,
2009-01-25, 01:07:04,VALID,999.212,VALID,0,VALID,95.9043,VALID,0,VALID,23.5079,VALID,51,VALID,0.101172,
2009-01-25, 01:08:04,VALID,999.2,VALID,0,VALID,95.8585,VALID,0,VALID,23.4884,VALID,51,VALID,0,
2009-01-25, 01:09:04,VALID,999.2,VALID,0,VALID,95.8204,VALID,0,VALID,23.4901,VALID,51,VALID,0,
2009-01-25, 01:10:04,VALID,999.232,VALID,0,VALID,95.8051,VALID,0,VALID,23.4298,VALID,51,VALID,0,
2009-01-25, 01:11:04,VALID,999.212,VALID,0,VALID,95.7899,VALID,0,VALID,23.4103,VALID,51,VALID,0,
2009-01-25, 01:12:04,VALID,999.206,VALID,0,VALID,95.828,VALID,0,VALID,23.3908,VALID,51,VALID,0,
2009-01-25, 01:13:04,VALID,999.194,VALID,0,VALID,95.8204,VALID,0,VALID,23.4121,VALID,51,VALID,0,
2009-01-25, 01:14:04,VALID,999.185,VALID,0,VALID,95.828,VALID,0,VALID,23.3908,VALID,51,VALID,0,
2009-01-25, 01:15:04,VALID,999.215,VALID,0,VALID,95.8433,VALID,0,VALID,23.3908,VALID,55,VALID,0.157031,
2009-01-25, 01:16:04,VALID,999.237,VALID,0,VALID,95.9348,VALID,0,VALID,23.4298,VALID,159,VALID,0.444922,
2009-01-25, 01:17:04,VALID,999.266,VALID,0,VALID,95.9501,VALID,0,VALID,23.4884,VALID,159,VALID,0.367188,
2009-01-25, 01:18:04,VALID,999.228,VALID,0,VALID,95.9959,VALID,0,VALID,23.5061,VALID,159,VALID,0.452734,
2009-01-25, 01:19:04,VALID,999.236,VALID,0,VALID,95.9577,VALID,0,VALID,23.5469,VALID,159,VALID,0,
2009-01-25, 01:20:04,VALID,999.184,VALID,0,VALID,95.9425,VALID,0,VALID,23.5682,VALID,159,VALID,0,
2009-01-25, 01:21:04,VALID,999.127,VALID,0,VALID,95.8585,VALID,0,VALID,23.5274,VALID,159,VALID,0.328906,
2009-01-25, 01:22:04,VALID,999.094,VALID,0,VALID,95.7822,VALID,0,VALID,23.4511,VALID,160,VALID,0.574609,
2009-01-25, 01:23:04,VALID,999.124,VALID,0,VALID,95.6525,VALID,0,VALID,23.3323,VALID,342,VALID,0.732813,
2009-01-25, 01:24:04,VALID,999.088,VALID,0,VALID,95.6602,VALID,0,VALID,23.2347,VALID,342,VALID,0.764453,
2009-01-25, 01:25:04,VALID,999.073,VALID,0,VALID,95.7212,VALID,0,VALID,23.2152,VALID,342,VALID,0.645703,
2009-01-25, 01:26:04,VALID,999.061,VALID,0,VALID,95.7822,VALID,0,VALID,23.2347,VALID,342,VALID,0.539063,
2009-01-25, 01:27:04,VALID,999.057,VALID,0,VALID,95.8585,VALID,0,VALID,23.2542,VALID,342,VALID,0.523047,
2009-01-25, 01:28:04,VALID,999.053,VALID,0,VALID,95.9043,VALID,0,VALID,23.2737,VALID,342,VALID,0.376563,
2009-01-25, 01:29:04,VALID,999.034,VALID,0,VALID,95.912,VALID,0,VALID,23.3127,VALID,342,VALID,0.324609,
2009-01-25, 01:30:04,VALID,999.004,VALID,0,VALID,95.9425,VALID,0,VALID,23.3323,VALID,342,VALID,0.397656,
2009-01-25, 01:31:04,VALID,998.987,VALID,0,VALID,95.912,VALID,0,VALID,23.3713,VALID,342,VALID,0.342187,
2009-01-25, 01:32:04,VALID,999,VALID,0,VALID,95.9348,VALID,0,VALID,23.3518,VALID,342,VALID,0.284375,
2009-01-25, 01:33:04,VALID,999.007,VALID,0,VALID,95.9196,VALID,0,VALID,23.3518,VALID,342,VALID,0.300391,
2009-01-25, 01:34:04,VALID,999.001,VALID,0,VALID,95.912,VALID,0,VALID,23.3713,VALID,342,VALID,0.142188,
2009-01-25, 01:35:04,VALID,998.983,VALID,0,VALID,95.9272,VALID,0,VALID,23.3713,VALID,342,VALID,0,
2009-01-25, 01:36:04,VALID,998.974,VALID,0,VALID,95.9425,VALID,0,VALID,23.4121,VALID,342,VALID,0,
2009-01-25, 01:37:04,VALID,998.983,VALID,0,VALID,95.9272,VALID,0,VALID,23.3908,VALID,342,VALID,0,
2009-01-25, 01:38:04,VALID,998.92,VALID,0,VALID,95.9425,VALID,0,VALID,23.3908,VALID,342,VALID,0,
2009-01-25, 01:39:04,VALID,998.918,VALID,0,VALID,95.9272,VALID,0,VALID,23.3908,VALID,342,VALID,0,
2009-01-25, 01:40:04,VALID,998.899,VALID,0,VALID,95.9196,VALID,0,VALID,23.3908,VALID,342,VALID,0,
2009-01-25, 01:41:04,VALID,998.857,VALID,0,VALID,95.9196,VALID,0,VALID,23.3713,VALID,342,VALID,0,
2009-01-25, 01:42:04,VALID,998.858,VALID,0,VALID,95.9196,VALID,0,VALID,23.3908,VALID,342,VALID,0,
2009-01-25, 01:43:04,VALID,998.849,VALID,0,VALID,95.9043,VALID,0,VALID,23.3713,VALID,342,VALID,0,
2009-01-25, 01:44:04,VALID,998.849,VALID,0,VALID,95.9501,VALID,0.112286,VALID,23.3908,VALID,342,VALID,0,
2009-01-25, 01:45:04,VALID,998.844,VALID,0,VALID,95.9806,VALID,0,VALID,23.4103,VALID,342,VALID,0,
2009-01-25, 01:46:04,VALID,998.866,VALID,0,VALID,95.9806,VALID,0,VALID,23.4298,VALID,342,VALID,0.426172,
2009-01-25, 01:47:04,VALID,998.92,VALID,0,VALID,96.0035,VALID,0,VALID,23.4688,VALID,144,VALID,0.880469,
2009-01-25, 01:48:04,VALID,998.949,VALID,0,VALID,95.973,VALID,0,VALID,23.4884,VALID,137,VALID,1.18438,
2009-01-25, 01:49:04,VALID,998.952,VALID,0,VALID,95.973,VALID,0,VALID,23.4884,VALID,137,VALID,1.06094,
2009-01-25, 01:50:04,VALID,998.956,VALID,0,VALID,95.9272,VALID,0,VALID,23.4688,VALID,140,VALID,0.848437,
2009-01-25, 01:51:04,VALID,998.935,VALID,0,VALID,95.9425,VALID,0.112286,VALID,23.4884,VALID,140,VALID,0.804688,
2009-01-25, 01:52:04,VALID,998.962,VALID,0,VALID,95.9501,VALID,0,VALID,23.5079,VALID,135,VALID,0.893359,
2009-01-25, 01:53:04,VALID,998.909,VALID,0,VALID,95.9348,VALID,0,VALID,23.5274,VALID,130,VALID,0.562891,
2009-01-25, 01:54:04,VALID,998.865,VALID,0,VALID,95.9196,VALID,0,VALID,23.5274,VALID,114,VALID,0.642187,
2009-01-25, 01:55:04,VALID,998.878,VALID,0,VALID,95.9043,VALID,0,VALID,23.5274,VALID,100,VALID,0.478516,
2009-01-25, 01:56:04,VALID,998.863,VALID,0,VALID,95.9272,VALID,0,VALID,23.5469,VALID,93,VALID,1.09961,
2009-01-25, 01:57:04,VALID,998.844,VALID,0,VALID,95.8814,VALID,0,VALID,23.5664,VALID,79,VALID,0.890234,
2009-01-25, 01:58:04,VALID,998.821,VALID,0,VALID,95.8662,VALID,0,VALID,23.5859,VALID,83,VALID,0.598828,
2009-01-25, 01:59:04,VALID,998.79,VALID,0,VALID,95.7822,VALID,0,VALID,23.5859,VALID,52,VALID,0.313672,
2009-01-25, 02:00:04,VALID,998.792,VALID,0,VALID,95.6525,VALID,0,VALID,23.5274,VALID,52,VALID,0,
2009-01-25, 02:01:04,VALID,998.749,VALID,0,VALID,95.5762,VALID,0,VALID,23.4493,VALID,52,VALID,0,
2009-01-25, 02:02:04,VALID,998.727,VALID,0,VALID,95.5915,VALID,0,VALID,23.4085,VALID,52,VALID,0,
2009-01-25, 02:03:04,VALID,998.714,VALID,0,VALID,95.622,VALID,0,VALID,23.4103,VALID,52,VALID,0,
2009-01-25, 02:04:04,VALID,998.672,VALID,0,VALID,95.6068,VALID,0,VALID,23.4298,VALID,52,VALID,0,
2009-01-25, 02:05:04,VALID,998.662,VALID,0,VALID,95.6525,VALID,0,VALID,23.4493,VALID,52,VALID,0,
2009-01-25, 02:06:04,VALID,998.656,VALID,0,VALID,95.6983,VALID,0,VALID,23.4688,VALID,72,VALID,0.0175781,
2009-01-25, 02:07:04,VALID,998.622,VALID,0,VALID,95.7288,VALID,0,VALID,23.4884,VALID,119,VALID,0.0804688,
2009-01-25, 02:08:04,VALID,998.648,VALID,0,VALID,95.6983,VALID,0,VALID,23.4884,VALID,120,VALID,0.207031,
2009-01-25, 02:09:04,VALID,998.623,VALID,0,VALID,95.6983,VALID,0,VALID,23.5079,VALID,120,VALID,0.199219,
2009-01-25, 02:10:04,VALID,998.671,VALID,0,VALID,95.706,VALID,0,VALID,23.5079,VALID,120,VALID,0.270312,
2009-01-25, 02:11:04,VALID,998.68,VALID,0,VALID,95.7136,VALID,0,VALID,23.5079,VALID,108,VALID,0.617188,
2009-01-25, 02:12:04,VALID,998.646,VALID,0,VALID,95.6754,VALID,0,VALID,23.5274,VALID,101,VALID,0.440234,
2009-01-25, 02:13:04,VALID,998.692,VALID,0,VALID,95.6449,VALID,0,VALID,23.5274,VALID,101,VALID,0.347656,
2009-01-25, 02:14:04,VALID,998.704,VALID,0,VALID,95.6602,VALID,0,VALID,23.5469,VALID,101,VALID,0.0558594,
2009-01-25, 02:15:04,VALID,998.712,VALID,0,VALID,95.6144,VALID,0,VALID,23.5664,VALID,101,VALID,0,
2009-01-25, 02:16:04,VALID,998.718,VALID,0,VALID,95.5686,VALID,0,VALID,23.5646,VALID,101,VALID,0,
2009-01-25, 02:17:04,VALID,998.755,VALID,0,VALID,95.5381,VALID,0,VALID,23.5664,VALID,101,VALID,0,
2009-01-25, 02:18:04,VALID,998.772,VALID,0,VALID,95.5228,VALID,0,VALID,23.5664,VALID,101,VALID,0,
2009-01-25, 02:19:04,VALID,998.769,VALID,0,VALID,95.4771,VALID,0,VALID,23.5664,VALID,101,VALID,0,
2009-01-25, 02:20:04,VALID,998.779,VALID,0,VALID,95.4313,VALID,0,VALID,23.5469,VALID,101,VALID,0.0164062,
2009-01-25, 02:21:04,VALID,998.767,VALID,0,VALID,95.4313,VALID,0,VALID,23.5487,VALID,101,VALID,0.104687,
2009-01-25, 02:22:04,VALID,998.732,VALID,0,VALID,95.3245,VALID,0,VALID,23.5079,VALID,101,VALID,0.186719,
2009-01-25, 02:23:04,VALID,998.717,VALID,0,VALID,95.355,VALID,0,VALID,23.4671,VALID,101,VALID,0.303906,
2009-01-25, 02:24:04,VALID,998.694,VALID,0,VALID,95.3855,VALID,0,VALID,23.5079,VALID,101,VALID,0.159766,
2009-01-25, 02:25:04,VALID,998.678,VALID,0,VALID,95.3092,VALID,0,VALID,23.4884,VALID,101,VALID,0.0726563,
2009-01-25, 02:26:04,VALID,998.634,VALID,0,VALID,95.3245,VALID,0,VALID,23.4884,VALID,73,VALID,0.426172,
2009-01-25, 02:27:04,VALID,998.662,VALID,0,VALID,95.3321,VALID,0,VALID,23.4884,VALID,3,VALID,0.400391,
2009-01-25, 02:28:04,VALID,998.628,VALID,0,VALID,95.3855,VALID,0,VALID,23.5079,VALID,3,VALID,0.371484,
2009-01-25, 02:29:04,VALID,998.617,VALID,0,VALID,95.3931,VALID,0,VALID,23.5079,VALID,3,VALID,0.237109,
2009-01-25, 02:30:04,VALID,998.632,VALID,0,VALID,95.3703,VALID,0,VALID,23.5079,VALID,3,VALID,0.175781,
2009-01-25, 02:31:04,VALID,998.623,VALID,0,VALID,95.3397,VALID,0,VALID,23.4884,VALID,3,VALID,0.00195313,
2009-01-25, 02:32:04,VALID,998.601,VALID,0,VALID,95.355,VALID,0,VALID,23.4475,VALID,3,VALID,0,
2009-01-25, 02:33:04,VALID,998.611,VALID,0,VALID,95.3474,VALID,0,VALID,23.4688,VALID,3,VALID,0,
2009-01-25, 02:34:04,VALID,998.603,VALID,0,VALID,95.2329,VALID,0,VALID,23.4298,VALID,3,VALID,0,
2009-01-25, 02:35:04,VALID,998.62,VALID,0,VALID,95.2024,VALID,0,VALID,23.3713,VALID,3,VALID,0.0265625,
2009-01-25, 02:36:04,VALID,998.628,VALID,0,VALID,95.3092,VALID,0,VALID,23.3748,VALID,3,VALID,0.380078,
2009-01-25, 02:37:04,VALID,998.609,VALID,0,VALID,95.355,VALID,0,VALID,23.3127,VALID,3,VALID,0.369922,
2009-01-25, 02:38:04,VALID,998.584,VALID,0,VALID,95.416,VALID,0,VALID,23.334,VALID,3,VALID,0.453125,
2009-01-25, 02:39:04,VALID,998.559,VALID,0,VALID,95.416,VALID,0,VALID,23.334,VALID,3,VALID,0.436719,
2009-01-25, 02:40:04,VALID,998.533,VALID,0,VALID,95.4542,VALID,0,VALID,23.334,VALID,3,VALID,0.247266,
2009-01-25, 02:41:04,VALID,998.506,VALID,0,VALID,95.4847,VALID,0,VALID,23.3145,VALID,3,VALID,0.251172,
2009-01-25, 02:42:04,VALID,998.493,VALID,0,VALID,95.5076,VALID,0,VALID,23.3145,VALID,3,VALID,0.215234,
2009-01-25, 02:43:04,VALID,998.483,VALID,0,VALID,95.4923,VALID,0,VALID,23.295,VALID,3,VALID,0.473047,
2009-01-25, 02:44:04,VALID,998.448,VALID,0,VALID,95.561,VALID,0,VALID,23.3145,VALID,3,VALID,0.648047,
2009-01-25, 02:45:04,VALID,998.451,VALID,0,VALID,95.5534,VALID,0,VALID,23.3145,VALID,3,VALID,0.529688,
2009-01-25, 02:46:04,VALID,998.454,VALID,0,VALID,95.5686,VALID,0,VALID,23.3145,VALID,3,VALID,0.621875,
2009-01-25, 02:47:04,VALID,998.445,VALID,0,VALID,95.5457,VALID,0,VALID,23.334,VALID,3,VALID,0.448438,
2009-01-25, 02:48:04,VALID,998.463,VALID,0,VALID,95.5457,VALID,0,VALID,23.3145,VALID,3,VALID,0.555859,
2009-01-25, 02:49:04,VALID,998.467,VALID,0,VALID,95.4847,VALID,0,VALID,23.3145,VALID,3,VALID,0.744531,
2009-01-25, 02:50:04,VALID,998.453,VALID,0,VALID,95.5152,VALID,0,VALID,23.3127,VALID,16,VALID,0.782422,
2009-01-25, 02:51:04,VALID,998.435,VALID,0,VALID,95.3855,VALID,0,VALID,23.2737,VALID,17,VALID,0.920703,
2009-01-25, 02:52:04,VALID,998.42,VALID,0,VALID,95.4008,VALID,0,VALID,23.2329,VALID,17,VALID,0.888672,
2009-01-25, 02:53:04,VALID,998.417,VALID,0,VALID,95.4771,VALID,0,VALID,23.2542,VALID,17,VALID,0.813281,
2009-01-25, 02:54:04,VALID,998.376,VALID,0,VALID,95.5076,VALID,0,VALID,23.2542,VALID,17,VALID,0.60625,
2009-01-25, 02:55:04,VALID,998.389,VALID,0,VALID,95.5762,VALID,0,VALID,23.2542,VALID,17,VALID,0.469922,
2009-01-25, 02:56:04,VALID,998.383,VALID,0,VALID,95.561,VALID,0,VALID,23.2737,VALID,17,VALID,0.336719,
2009-01-25, 02:57:04,VALID,998.373,VALID,0,VALID,95.561,VALID,0.112286,VALID,23.2932,VALID,17,VALID,0.187109,
2009-01-25, 02:58:04,VALID,998.381,VALID,0,VALID,95.5534,VALID,0,VALID,23.2737,VALID,17,VALID,0,
2009-01-25, 02:59:04,VALID,998.395,VALID,0,VALID,95.561,VALID,0,VALID,23.2542,VALID,17,VALID,0,
2009-01-25, 03:00:04,VALID,998.416,VALID,0,VALID,95.5839,VALID,0,VALID,23.2932,VALID,17,VALID,0,
2009-01-25, 03:01:04,VALID,998.398,VALID,0,VALID,95.622,VALID,0,VALID,23.3127,VALID,17,VALID,0,
2009-01-25, 03:02:04,VALID,998.424,VALID,0,VALID,95.6373,VALID,0.112286,VALID,23.3127,VALID,17,VALID,0,
2009-01-25, 03:03:04,VALID,998.419,VALID,0,VALID,95.6449,VALID,0.112286,VALID,23.3127,VALID,17,VALID,0,
2009-01-25, 03:04:04,VALID,998.449,VALID,0,VALID,95.6831,VALID,0,VALID,23.3323,VALID,17,VALID,0,
2009-01-25, 03:05:04,VALID,998.454,VALID,0,VALID,95.7136,VALID,0,VALID,23.3518,VALID,17,VALID,0.396484,
2009-01-25, 03:06:04,VALID,998.493,VALID,0,VALID,95.7212,VALID,0,VALID,23.3713,VALID,17,VALID,0.458203,
2009-01-25, 03:07:04,VALID,998.485,VALID,0,VALID,95.706,VALID,0,VALID,23.3713,VALID,17,VALID,0.568359,
2009-01-25, 03:08:04,VALID,998.492,VALID,0,VALID,95.7136,VALID,0,VALID,23.3908,VALID,17,VALID,0.555078,
2009-01-25, 03:09:04,VALID,998.534,VALID,0,VALID,95.7136,VALID,0,VALID,23.3908,VALID,17,VALID,0.376172,
2009-01-25, 03:10:04,VALID,998.548,VALID,0,VALID,95.7288,VALID,0,VALID,23.3908,VALID,17,VALID,0.323438,
2009-01-25, 03:11:04,VALID,998.556,VALID,0,VALID,95.6754,VALID,0,VALID,23.4103,VALID,17,VALID,0.171875,
2009-01-25, 03:12:04,VALID,998.551,VALID,0,VALID,95.6373,VALID,0,VALID,23.3908,VALID,17,VALID,0.194922,
2009-01-25, 03:13:04,VALID,998.551,VALID,0,VALID,95.5991,VALID,0,VALID,23.3713,VALID,17,VALID,0.135937,
2009-01-25, 03:14:04,VALID,998.531,VALID,0,VALID,95.5839,VALID,0,VALID,23.3518,VALID,17,VALID,0.00546875,
2009-01-25, 03:15:04,VALID,998.525,VALID,0,VALID,95.5686,VALID,0,VALID,23.3323,VALID,17,VALID,0,
2009-01-25, 03:16:04,VALID,998.535,VALID,0,VALID,95.561,VALID,0,VALID,23.3127,VALID,17,VALID,0,
2009-01-25, 03:17:04,VALID,998.506,VALID,0,VALID,95.6144,VALID,0,VALID,23.3145,VALID,17,VALID,0,
2009-01-25, 03:18:04,VALID,998.501,VALID,0,VALID,95.6831,VALID,0,VALID,23.3323,VALID,17,VALID,0,
2009-01-25, 03:19:04,VALID,998.528,VALID,0,VALID,95.6983,VALID,0.112286,VALID,23.3518,VALID,17,VALID,0,
2009-01-25, 03:20:04,VALID,998.519,VALID,0,VALID,95.6907,VALID,0,VALID,23.3518,VALID,17,VALID,0,
2009-01-25, 03:21:04,VALID,998.549,VALID,0,VALID,95.706,VALID,0,VALID,23.3518,VALID,17,VALID,0,
2009-01-25, 03:22:04,VALID,998.571,VALID,0,VALID,95.6907,VALID,0,VALID,23.3518,VALID,17,VALID,0,
2009-01-25, 03:23:04,VALID,998.562,VALID,0,VALID,95.6678,VALID,0,VALID,23.3323,VALID,17,VALID,0,
2009-01-25, 03:24:04,VALID,998.568,VALID,0,VALID,95.6831,VALID,0,VALID,23.3535,VALID,17,VALID,0,
2009-01-25, 03:25:04,VALID,998.585,VALID,0,VALID,95.6983,VALID,0,VALID,23.3127,VALID,17,VALID,0,
2009-01-25, 03:26:04,VALID,998.601,VALID,0,VALID,95.6297,VALID,0,VALID,23.2932,VALID,17,VALID,0.342578,
2009-01-25, 03:27:04,VALID,998.579,VALID,0,VALID,95.5686,VALID,0,VALID,23.2737,VALID,17,VALID,0.376953,
2009-01-25, 03:28:04,VALID,998.588,VALID,0,VALID,95.622,VALID,0,VALID,23.2329,VALID,17,VALID,0.333594,
2009-01-25, 03:29:04,VALID,998.591,VALID,0,VALID,95.7746,VALID,0,VALID,23.2737,VALID,17,VALID,0.400781,
2009-01-25, 03:30:04,VALID,998.594,VALID,0,VALID,95.8433,VALID,0,VALID,23.2915,VALID,17,VALID,0.352734,
2009-01-25, 03:31:04,VALID,998.636,VALID,0,VALID,95.8051,VALID,0,VALID,23.3535,VALID,17,VALID,0.461719,
2009-01-25, 03:32:04,VALID,998.624,VALID,0,VALID,95.8204,VALID,0,VALID,23.3518,VALID,98,VALID,0.666016,
2009-01-25, 03:33:04,VALID,998.643,VALID,0,VALID,95.828,VALID,0,VALID,23.3908,VALID,101,VALID,0.708203,
2009-01-25, 03:34:04,VALID,998.652,VALID,0,VALID,95.6907,VALID,0.112286,VALID,23.3713,VALID,104,VALID,0.610937,
2009-01-25, 03:35:04,VALID,998.68,VALID,0,VALID,95.7212,VALID,0,VALID,23.3713,VALID,104,VALID,0.600781,
2009-01-25, 03:36:04,VALID,998.661,VALID,0,VALID,95.7136,VALID,0,VALID,23.3908,VALID,104,VALID,0.601172,
2009-01-25, 03:37:04,VALID,998.679,VALID,0,VALID,95.6983,VALID,0,VALID,23.3908,VALID,104,VALID,0.538672,
2009-01-25, 03:38:04,VALID,998.684,VALID,0,VALID,95.6831,VALID,0,VALID,23.3908,VALID,104,VALID,0.480859,
2009-01-25, 03:39:04,VALID,998.728,VALID,0,VALID,95.6449,VALID,0,VALID,23.3908,VALID,104,VALID,0.304688,
2009-01-25, 03:40:04,VALID,998.726,VALID,0,VALID,95.6525,VALID,0,VALID,23.3908,VALID,104,VALID,0.222656,
2009-01-25, 03:41:04,VALID,998.733,VALID,0,VALID,95.5991,VALID,0.112286,VALID,23.35,VALID,104,VALID,0.135937,
2009-01-25, 03:42:04,VALID,998.754,VALID,0,VALID,95.6144,VALID,0,VALID,23.3713,VALID,104,VALID,0.239844,
2009-01-25, 03:43:04,VALID,998.732,VALID,0,VALID,95.6525,VALID,0,VALID,23.3713,VALID,104,VALID,0.244141,
2009-01-25, 03:44:04,VALID,998.734,VALID,0,VALID,95.6831,VALID,0,VALID,23.3695,VALID,104,VALID,0.197266,
2009-01-25, 03:45:04,VALID,998.737,VALID,0,VALID,95.6525,VALID,0,VALID,23.3908,VALID,104,VALID,0.191406,
2009-01-25, 03:46:04,VALID,998.762,VALID,0,VALID,95.6373,VALID,0,VALID,23.3908,VALID,104,VALID,0.194922,
2009-01-25, 03:47:04,VALID,998.752,VALID,0,VALID,95.6449,VALID,0,VALID,23.3908,VALID,104,VALID,0.139844,
2009-01-25, 03:48:04,VALID,998.802,VALID,0,VALID,95.6373,VALID,0,VALID,23.3713,VALID,104,VALID,0,
2009-01-25, 03:49:04,VALID,998.802,VALID,0,VALID,95.6449,VALID,0,VALID,23.35,VALID,104,VALID,0,